TUI6HA EDDH-EDDW

Flight info

Callsign TUI6HA
Flight time 0h 29m
Altitude 10000
Route WSN5C WSN L23 GIBMA GIBMA2P
Aircraft B738/M-SDE2E3FGHIRWXY/LB1

Departure

Time 2026-04-21 14:04
Airport Hamburg Helmut Schmidt Airport (EDDH)

Arrival

Time 2026-04-21 14:34
Airport Bremen Airport (EDDW)
Time Latitude Longitude Altitude Speed Heading
2026-04-21 13:40 53.63268 10.00070 50 ft 0 kts 324°
2026-04-21 13:56 53.63256 10.00085 66 ft 4 kts 335°
2026-04-21 13:56 53.63231 10.00096 36 ft 4 kts
2026-04-21 13:56 53.63206 10.00082 48 ft 4 kts 38°
2026-04-21 13:57 53.63189 10.00054 46 ft 1 kts 53°
2026-04-21 13:57 53.63189 10.00053 46 ft 0 kts 53°
2026-04-21 13:59 53.63194 10.00064 45 ft 3 kts 53°
2026-04-21 13:59 53.63222 10.00124 50 ft 10 kts 51°
2026-04-21 13:59 53.63302 10.00171 50 ft 16 kts 358°
2026-04-21 14:00 53.63413 10.00140 48 ft 14 kts 315°
2026-04-21 14:00 53.63388 9.99983 50 ft 18 kts 229°
2026-04-21 14:00 53.63286 9.99780 49 ft 26 kts 230°
2026-04-21 14:00 53.63148 9.99522 49 ft 33 kts 231°
2026-04-21 14:01 53.63001 9.99189 49 ft 38 kts 233°
2026-04-21 14:01 53.62827 9.98832 49 ft 39 kts 230°
2026-04-21 14:01 53.62656 9.98478 49 ft 38 kts 231°
2026-04-21 14:01 53.62482 9.98156 49 ft 36 kts 220°
2026-04-21 14:02 53.62313 9.97853 49 ft 35 kts 230°
2026-04-21 14:02 53.62191 9.97599 49 ft 19 kts 244°
2026-04-21 14:02 53.62205 9.97417 49 ft 1 kts 307°
2026-04-21 14:03 53.62219 9.97396 49 ft 5 kts 323°
2026-04-21 14:03 53.62272 9.97368 46 ft 11 kts 355°
2026-04-21 14:03 53.62348 9.97432 47 ft 15 kts 52°
2026-04-21 14:03 53.62634 9.98011 48 ft 120 kts 49°
2026-04-21 14:04 53.63356 9.99490 263 ft 196 kts 50°
2026-04-21 14:04 53.64284 10.01487 840 ft 230 kts 53°
2026-04-21 14:04 53.65266 10.03626 1029 ft 229 kts 50°
2026-04-21 14:04 53.66281 10.05628 1191 ft 223 kts 50°
2026-04-21 14:05 53.67282 10.07609 1403 ft 218 kts 50°
2026-04-21 14:05 53.68370 10.09391 1674 ft 220 kts 32°
2026-04-21 14:05 53.69822 10.10041 1978 ft 224 kts
2026-04-21 14:05 53.71366 10.09353 2257 ft 232 kts 333°
2026-04-21 14:06 53.72504 10.07437 2525 ft 241 kts 304°
2026-04-21 14:06 53.73288 10.04915 2920 ft 249 kts 300°
2026-04-21 14:06 53.74136 10.02104 3354 ft 286 kts 300°
2026-04-21 14:06 53.74923 9.98908 3673 ft 300 kts 282°
2026-04-21 14:07 53.74802 9.95377 4114 ft 307 kts 253°
2026-04-21 14:07 53.74014 9.91994 4554 ft 312 kts 246°
2026-04-21 14:07 53.73141 9.88623 4938 ft 314 kts 246°
2026-04-21 14:07 53.72261 9.85259 5325 ft 313 kts 246°
2026-04-21 14:08 53.71383 9.81886 5699 ft 313 kts 246°
2026-04-21 14:08 53.70514 9.78519 6091 ft 315 kts 246°
2026-04-21 14:08 53.69638 9.75098 6494 ft 320 kts 246°
2026-04-21 14:08 53.68754 9.71636 6909 ft 322 kts 246°
2026-04-21 14:09 53.67870 9.68170 7267 ft 321 kts 246°
2026-04-21 14:09 53.66987 9.64710 7646 ft 321 kts 246°
2026-04-21 14:09 53.66101 9.61245 8027 ft 325 kts 246°
2026-04-21 14:09 53.65181 9.57734 8423 ft 331 kts 243°
2026-04-21 14:10 53.63967 9.54440 8806 ft 331 kts 233°
2026-04-21 14:10 53.62595 9.51333 9199 ft 331 kts 232°
2026-04-21 14:10 53.61197 9.48243 9594 ft 332 kts 231°
2026-04-21 14:10 53.59804 9.45127 9999 ft 335 kts 232°
2026-04-21 14:11 53.58410 9.41958 10359 ft 339 kts 232°
2026-04-21 14:11 53.57015 9.38741 10347 ft 341 kts 233°
2026-04-21 14:11 53.55624 9.35515 10355 ft 341 kts 233°
2026-04-21 14:11 53.54233 9.32290 10346 ft 341 kts 233°
2026-04-21 14:12 53.52842 9.29069 10343 ft 340 kts 233°
2026-04-21 14:12 53.51451 9.25858 10352 ft 340 kts 233°
2026-04-21 14:12 53.50058 9.22650 10349 ft 340 kts 232°
2026-04-21 14:12 53.48664 9.19442 10347 ft 340 kts 232°
2026-04-21 14:13 53.47268 9.16235 10348 ft 340 kts 232°
2026-04-21 14:13 53.45874 9.13032 10345 ft 340 kts 232°
2026-04-21 14:13 53.44476 9.09825 10351 ft 340 kts 232°
2026-04-21 14:13 53.43079 9.06625 10349 ft 340 kts 232°
2026-04-21 14:14 53.41683 9.03429 10350 ft 340 kts 232°
2026-04-21 14:14 53.40286 9.00234 10352 ft 340 kts 232°
2026-04-21 14:14 53.38889 8.97041 10352 ft 340 kts 232°
2026-04-21 14:14 53.37486 8.93843 10352 ft 340 kts 232°
2026-04-21 14:15 53.36083 8.90650 10348 ft 340 kts 232°
2026-04-21 14:15 53.34557 8.87653 10328 ft 338 kts 217°
2026-04-21 14:15 53.32546 8.85693 10359 ft 333 kts 202°
2026-04-21 14:15 53.30431 8.84112 10352 ft 333 kts 201°
2026-04-21 14:16 53.28319 8.82548 10349 ft 328 kts 201°
2026-04-21 14:16 53.26263 8.80996 10338 ft 320 kts 201°
2026-04-21 14:16 53.24271 8.79476 10339 ft 312 kts 201°
2026-04-21 14:16 53.22305 8.77972 10339 ft 310 kts 201°
2026-04-21 14:17 53.20255 8.76986 10303 ft 306 kts 181°
2026-04-21 14:17 53.18149 8.76840 10095 ft 301 kts 178°
2026-04-21 14:17 53.16122 8.76751 9839 ft 286 kts 178°
2026-04-21 14:17 53.14205 8.76655 9565 ft 266 kts 178°
2026-04-21 14:18 53.12412 8.76554 9289 ft 250 kts 178°
2026-04-21 14:18 53.10728 8.76447 9025 ft 234 kts 178°
2026-04-21 14:18 53.09123 8.76342 8751 ft 228 kts 178°
2026-04-21 14:18 53.07553 8.76238 8482 ft 225 kts 178°
2026-04-21 14:19 53.05992 8.76134 8222 ft 223 kts 178°
2026-04-21 14:19 53.04462 8.75632 7969 ft 226 kts 194°
2026-04-21 14:19 53.02962 8.74834 7719 ft 228 kts 194°
2026-04-21 14:19 53.01439 8.74047 7475 ft 231 kts 193°
2026-04-21 14:20 52.99902 8.73260 7242 ft 232 kts 194°
2026-04-21 14:20 52.98362 8.72478 6989 ft 229 kts 193°
2026-04-21 14:20 52.96880 8.71638 6742 ft 223 kts 201°
2026-04-21 14:20 52.95516 8.70506 6455 ft 216 kts 204°
2026-04-21 14:21 52.94192 8.69401 6200 ft 210 kts 203°
2026-04-21 14:21 52.92896 8.68345 5909 ft 205 kts 203°
2026-04-21 14:21 52.91678 8.67099 5650 ft 205 kts 224°
2026-04-21 14:21 52.90939 8.65136 5420 ft 203 kts 242°
2026-04-21 14:22 52.90324 8.63033 5157 ft 203 kts 243°
2026-04-21 14:22 52.89715 8.60929 4862 ft 202 kts 243°
2026-04-21 14:22 52.89112 8.58839 4607 ft 201 kts 244°
2026-04-21 14:22 52.88504 8.56762 4350 ft 200 kts 244°
2026-04-21 14:23 52.87895 8.54702 4090 ft 198 kts 245°
2026-04-21 14:23 52.87624 8.52514 3830 ft 193 kts 272°
2026-04-21 14:23 52.87614 8.50325 3620 ft 188 kts 274°
2026-04-21 14:23 52.87610 8.48215 3449 ft 178 kts 273°
2026-04-21 14:24 52.87621 8.46196 3330 ft 175 kts 274°
2026-04-21 14:24 52.87640 8.44163 3193 ft 177 kts 278°
2026-04-21 14:24 52.88169 8.42483 3008 ft 159 kts 335°
2026-04-21 14:24 52.89132 8.42373 2989 ft 136 kts 32°
2026-04-21 14:25 52.89883 8.43314 2953 ft 139 kts 21°
2026-04-21 14:25 52.90781 8.43778 2976 ft 131 kts 23°
2026-04-21 14:25 52.91632 8.44318 2996 ft 131 kts 24°
2026-04-21 14:25 52.92487 8.44860 2981 ft 132 kts 24°
2026-04-21 14:26 52.93355 8.45380 2982 ft 133 kts 23°
2026-04-21 14:26 52.94223 8.45924 3001 ft 134 kts 22°
2026-04-21 14:26 52.95100 8.46474 2996 ft 134 kts 24°
2026-04-21 14:26 52.95984 8.46995 2965 ft 134 kts 24°
2026-04-21 14:27 52.96850 8.47541 2998 ft 133 kts 23°
2026-04-21 14:27 52.97700 8.48069 3007 ft 128 kts 24°
2026-04-21 14:27 52.98539 8.48586 2982 ft 126 kts 24°
2026-04-21 14:27 52.99353 8.49088 2958 ft 125 kts 24°
2026-04-21 14:28 53.00165 8.49581 2956 ft 125 kts 24°
2026-04-21 14:28 53.00976 8.50087 2968 ft 127 kts 24°
2026-04-21 14:28 53.01795 8.50588 2982 ft 126 kts 23°
2026-04-21 14:28 53.02623 8.51114 2990 ft 127 kts 27°
2026-04-21 14:29 53.03297 8.52065 2960 ft 128 kts 48°
2026-04-21 14:29 53.03786 8.53284 2833 ft 125 kts 64°
2026-04-21 14:29 53.03997 8.54679 2685 ft 126 kts 81°
2026-04-21 14:29 53.04116 8.56129 2512 ft 127 kts 79°
2026-04-21 14:30 53.04200 8.57566 2334 ft 125 kts 84°
2026-04-21 14:30 53.04239 8.58988 2196 ft 125 kts 84°
2026-04-21 14:30 53.04284 8.60467 2019 ft 131 kts 83°
2026-04-21 14:30 53.04304 8.61954 1844 ft 127 kts 84°
2026-04-21 14:31 53.04329 8.62905 1746 ft 122 kts 84°
2026-04-21 14:31 53.04364 8.64331 1537 ft 128 kts 85°
2026-04-21 14:31 53.04374 8.65844 1212 ft 131 kts 87°
2026-04-21 14:31 53.04355 8.67298 968 ft 122 kts 86°
2026-04-21 14:32 53.04359 8.68700 799 ft 121 kts 83°
2026-04-21 14:32 53.04402 8.70101 701 ft 122 kts 83°
2026-04-21 14:32 53.04470 8.71480 562 ft 116 kts 82°
2026-04-21 14:32 53.04498 8.72786 413 ft 115 kts 84°
2026-04-21 14:33 53.04552 8.74186 395 ft 128 kts 82°
2026-04-21 14:33 53.04606 8.75661 231 ft 126 kts 86°
2026-04-21 14:33 53.04640 8.77066 69 ft 118 kts 83°
2026-04-21 14:33 53.04677 8.78326 19 ft 95 kts 87°
2026-04-21 14:34 53.04702 8.79122 21 ft 38 kts 87°
2026-04-21 14:34 53.04728 8.79266 18 ft 9 kts 47°
2026-04-21 14:34 53.04767 8.79233 18 ft 9 kts 266°
2026-04-21 14:34 53.04721 8.79206 20 ft 9 kts 137°
2026-04-21 14:35 53.04742 8.79284 18 ft 8 kts 24°
2026-04-21 14:35 53.04798 8.79281 19 ft 8 kts 357°
2026-04-21 14:35 53.04850 8.79254 20 ft 8 kts 312°
2026-04-21 14:35 53.04865 8.79159 19 ft 9 kts 272°
2026-04-21 14:36 53.04857 8.79033 16 ft 12 kts 265°
2026-04-21 14:36 53.04875 8.78892 15 ft 13 kts 314°
2026-04-21 14:36 53.04942 8.78794 16 ft 13 kts 320°
2026-04-21 14:36 53.04998 8.78686 17 ft 12 kts 291°
2026-04-21 14:37 53.05040 8.78565 17 ft 12 kts 317°
2026-04-21 14:37 53.05087 8.78530 17 ft 7 kts 360°
2026-04-21 14:37 53.05129 8.78573 19 ft 7 kts 46°
2026-04-21 14:37 53.05139 8.78592 17 ft 0 kts 48°